DLH6CR EDDF-EDXW

Flight info

Callsign DLH6CR
Flight time 0h 54m
Altitude 37000
Route MARUN6E/07C MARUN Y150 TOLGI DCT ELSOB Y348 OMWEG DCT BADOS DCT OLDIP
Aircraft A319/M-SDE3FGHIRWY/LB1

Departure

Time 2026-05-01 14:28
Airport Frankfurt Main Airport (EDDF)

Arrival

Time 2026-05-01 15:23
Airport Westerland Sylt Airport (EDXW)
Time Latitude Longitude Altitude Speed Heading
2026-05-01 13:40 50.04997 8.57602 359 ft 0 kts 21°
2026-05-01 14:16 50.04983 8.57593 361 ft 3 kts 21°
2026-05-01 14:16 50.04963 8.57581 357 ft 3 kts 24°
2026-05-01 14:16 50.04944 8.57567 363 ft 3 kts 38°
2026-05-01 14:16 50.04932 8.57547 363 ft 3 kts 88°
2026-05-01 14:17 50.04932 8.57538 363 ft 3 kts 115°
2026-05-01 14:17 50.04923 8.57568 359 ft 3 kts 115°
2026-05-01 14:17 50.04914 8.57598 356 ft 3 kts 115°
2026-05-01 14:17 50.04905 8.57627 359 ft 2 kts 115°
2026-05-01 14:18 50.04905 8.57628 359 ft 0 kts 115°
2026-05-01 14:20 50.04896 8.57659 359 ft 4 kts 112°
2026-05-01 14:20 50.04880 8.57718 360 ft 7 kts 112°
2026-05-01 14:21 50.04861 8.57789 362 ft 7 kts 112°
2026-05-01 14:21 50.04837 8.57866 364 ft 9 kts 126°
2026-05-01 14:21 50.04782 8.57916 359 ft 10 kts 159°
2026-05-01 14:22 50.04637 8.58001 360 ft 12 kts 159°
2026-05-01 14:22 50.04572 8.58033 364 ft 8 kts 176°
2026-05-01 14:22 50.04538 8.57999 366 ft 6 kts 238°
2026-05-01 14:22 50.04522 8.57932 367 ft 8 kts 250°
2026-05-01 14:23 50.04496 8.57824 368 ft 13 kts 249°
2026-05-01 14:23 50.04460 8.57672 366 ft 17 kts 250°
2026-05-01 14:23 50.04413 8.57475 366 ft 22 kts 250°
2026-05-01 14:23 50.04359 8.57251 363 ft 22 kts 250°
2026-05-01 14:24 50.04304 8.57021 362 ft 24 kts 249°
2026-05-01 14:24 50.04247 8.56779 360 ft 24 kts 249°
2026-05-01 14:24 50.04195 8.56563 362 ft 17 kts 250°
2026-05-01 14:24 50.04151 8.56380 357 ft 19 kts 250°
2026-05-01 14:25 50.04103 8.56178 359 ft 20 kts 250°
2026-05-01 14:25 50.04055 8.55976 351 ft 19 kts 249°
2026-05-01 14:25 50.04008 8.55781 353 ft 20 kts 249°
2026-05-01 14:25 50.03960 8.55580 353 ft 16 kts 250°
2026-05-01 14:26 50.03932 8.55489 353 ft 8 kts 221°
2026-05-01 14:26 50.03856 8.55507 353 ft 0 kts 159°
2026-05-01 14:27 50.03854 8.55508 352 ft 2 kts 159°
2026-05-01 14:27 50.03829 8.55523 351 ft 6 kts 159°
2026-05-01 14:27 50.03778 8.55552 353 ft 9 kts 159°
2026-05-01 14:28 50.03813 8.55769 355 ft 39 kts 69°
2026-05-01 14:28 50.04006 8.56576 355 ft 114 kts 69°
2026-05-01 14:28 50.04329 8.57969 611 ft 145 kts 73°
2026-05-01 14:28 50.04671 8.59419 1376 ft 142 kts 73°
2026-05-01 14:29 50.05038 8.60986 1802 ft 170 kts 73°
2026-05-01 14:29 50.05618 8.62772 2092 ft 206 kts 51°
2026-05-01 14:30 50.10145 8.63466 4753 ft 235 kts 359°
2026-05-01 14:30 50.11274 8.63377 5142 ft 250 kts 358°
2026-05-01 14:30 50.13105 8.63239 5648 ft 275 kts 359°
2026-05-01 14:31 50.17081 8.62954 7053 ft 293 kts 358°
2026-05-01 14:31 50.19123 8.62810 7244 ft 295 kts 358°
2026-05-01 14:31 50.21204 8.62663 7433 ft 298 kts 358°
2026-05-01 14:31 50.23265 8.62522 8460 ft 298 kts 358°
2026-05-01 14:32 50.25342 8.62382 9458 ft 301 kts 359°
2026-05-01 14:32 50.27460 8.62242 10415 ft 306 kts 359°
2026-05-01 14:32 50.29673 8.62100 10819 ft 330 kts 360°
2026-05-01 14:32 50.31991 8.62591 11336 ft 342 kts 21°
2026-05-01 14:33 50.34152 8.64175 12123 ft 345 kts 30°
2026-05-01 14:33 50.36292 8.65906 12982 ft 348 kts 30°
2026-05-01 14:33 50.38447 8.67667 13863 ft 351 kts 30°
2026-05-01 14:33 50.40624 8.69452 14644 ft 354 kts 30°
2026-05-01 14:34 50.42812 8.71248 15372 ft 358 kts 30°
2026-05-01 14:34 50.45035 8.73076 16105 ft 362 kts 30°
2026-05-01 14:34 50.47277 8.74918 16834 ft 365 kts 30°
2026-05-01 14:34 50.49539 8.76776 17571 ft 369 kts 30°
2026-05-01 14:35 50.51823 8.78654 18286 ft 373 kts 30°
2026-05-01 14:35 50.54138 8.80558 18954 ft 377 kts 30°
2026-05-01 14:35 50.56469 8.82475 19590 ft 380 kts 29°
2026-05-01 14:35 50.58812 8.84404 20252 ft 382 kts 29°
2026-05-01 14:36 50.61177 8.86359 20919 ft 385 kts 30°
2026-05-01 14:36 50.63556 8.88327 21572 ft 387 kts 30°
2026-05-01 14:36 50.65976 8.90330 22220 ft 390 kts 30°
2026-05-01 14:36 50.68356 8.92303 22878 ft 392 kts 30°
2026-05-01 14:37 50.70810 8.94339 23511 ft 395 kts 30°
2026-05-01 14:37 50.73253 8.96370 24097 ft 398 kts 29°
2026-05-01 14:37 50.75680 8.98386 24587 ft 401 kts 29°
2026-05-01 14:37 50.78181 9.00466 25075 ft 403 kts 29°
2026-05-01 14:38 50.80672 9.02542 25564 ft 406 kts 29°
2026-05-01 14:38 50.83178 9.04633 26028 ft 408 kts 29°
2026-05-01 14:38 50.85700 9.06741 26509 ft 411 kts 29°
2026-05-01 14:38 50.88231 9.08863 26958 ft 414 kts 28°
2026-05-01 14:39 50.90778 9.10998 27437 ft 416 kts 28°
2026-05-01 14:39 50.93368 9.13174 27869 ft 420 kts 28°
2026-05-01 14:39 50.95942 9.15339 28332 ft 422 kts 29°
2026-05-01 14:39 50.98543 9.17531 28768 ft 425 kts 28°
2026-05-01 14:40 51.01167 9.19743 29180 ft 428 kts 28°
2026-05-01 14:40 51.03805 9.21969 29605 ft 431 kts 28°
2026-05-01 14:40 51.06492 9.24152 30015 ft 435 kts 23°
2026-05-01 14:40 51.09403 9.25409 30398 ft 438 kts
2026-05-01 14:41 51.12450 9.25383 30725 ft 441 kts 355°
2026-05-01 14:41 51.15517 9.24940 31086 ft 443 kts 355°
2026-05-01 14:41 51.18601 9.24484 31434 ft 445 kts 354°
2026-05-01 14:41 51.21695 9.24020 31768 ft 447 kts 355°
2026-05-01 14:42 51.24790 9.23556 32090 ft 449 kts 355°
2026-05-01 14:42 51.27899 9.23090 32531 ft 448 kts 354°
2026-05-01 14:42 51.31002 9.22627 33011 ft 446 kts 354°
2026-05-01 14:42 51.34123 9.22166 33527 ft 444 kts 354°
2026-05-01 14:43 51.37149 9.21723 34043 ft 442 kts 354°
2026-05-01 14:43 51.40247 9.21273 34296 ft 442 kts 354°
2026-05-01 14:43 51.43288 9.20832 34338 ft 431 kts 354°
2026-05-01 14:44 51.49192 9.19975 34337 ft 425 kts 354°
2026-05-01 14:44 51.58010 9.18673 34333 ft 424 kts 354°
2026-05-01 14:45 51.66849 9.17353 34450 ft 433 kts 354°
2026-05-01 14:45 51.69854 9.16904 34721 ft 436 kts 354°
2026-05-01 14:46 51.72878 9.16450 35089 ft 436 kts 354°
2026-05-01 14:46 51.78912 9.15550 35814 ft 435 kts 354°
2026-05-01 14:46 51.81927 9.15106 36226 ft 434 kts 354°
2026-05-01 14:47 51.84934 9.14663 36582 ft 433 kts 354°
2026-05-01 14:47 51.87972 9.14205 36925 ft 433 kts 354°
2026-05-01 14:47 51.90923 9.13756 37257 ft 432 kts 353°
2026-05-01 14:48 51.96962 9.12841 37337 ft 432 kts 354°
2026-05-01 14:48 52.05930 9.11492 37334 ft 432 kts 353°
2026-05-01 14:49 52.17899 9.09684 37331 ft 432 kts 354°
2026-05-01 14:50 52.29863 9.07746 37316 ft 432 kts 348°
2026-05-01 14:51 52.38694 9.04724 37319 ft 433 kts 347°
2026-05-01 14:52 52.47526 9.01550 37320 ft 433 kts 347°
2026-05-01 14:53 52.56375 8.98418 37327 ft 433 kts 347°
2026-05-01 14:53 52.62249 8.96340 37341 ft 432 kts 347°
2026-05-01 14:54 52.68142 8.94256 37343 ft 432 kts 347°
2026-05-01 14:54 52.74058 8.92137 37337 ft 432 kts 347°
2026-05-01 14:55 52.79895 8.90047 37334 ft 432 kts 347°
2026-05-01 14:55 52.85810 8.87921 37330 ft 432 kts 347°
2026-05-01 14:56 52.91686 8.85807 37333 ft 432 kts 347°
2026-05-01 14:56 52.97583 8.83690 37324 ft 433 kts 347°
2026-05-01 14:56 53.00512 8.82634 37044 ft 432 kts 347°
2026-05-01 14:57 53.03463 8.81567 36321 ft 433 kts 347°
2026-05-01 14:57 53.09376 8.79410 34800 ft 437 kts 347°
2026-05-01 14:57 53.12354 8.78321 33998 ft 440 kts 347°
2026-05-01 14:58 53.15343 8.77234 33243 ft 439 kts 348°
2026-05-01 14:58 53.18317 8.76153 32614 ft 436 kts 348°
2026-05-01 14:58 53.21280 8.75074 31980 ft 434 kts 348°
2026-05-01 14:58 53.24219 8.74001 31373 ft 433 kts 348°
2026-05-01 14:59 53.27144 8.72926 30811 ft 429 kts 348°
2026-05-01 14:59 53.30047 8.71860 30341 ft 424 kts 348°
2026-05-01 14:59 53.32922 8.70806 29686 ft 422 kts 348°
2026-05-01 14:59 53.35786 8.69755 29091 ft 418 kts 348°
2026-05-01 15:00 53.40480 8.68027 28130 ft 412 kts 348°
2026-05-01 15:00 53.44214 8.66649 27327 ft 410 kts 348°
2026-05-01 15:00 53.46997 8.65622 26784 ft 408 kts 348°
2026-05-01 15:01 53.49757 8.64601 26305 ft 405 kts 348°
2026-05-01 15:01 53.51610 8.63914 25967 ft 403 kts 348°
2026-05-01 15:01 53.55228 8.62570 25324 ft 401 kts 348°
2026-05-01 15:01 53.57064 8.61886 25017 ft 399 kts 347°
2026-05-01 15:02 53.59759 8.60882 24616 ft 395 kts 348°
2026-05-01 15:02 53.61529 8.60224 24286 ft 394 kts 348°
2026-05-01 15:02 53.65105 8.58899 23588 ft 392 kts 348°
2026-05-01 15:02 53.67752 8.57915 23094 ft 389 kts 347°
2026-05-01 15:03 53.70375 8.56935 22622 ft 385 kts 347°
2026-05-01 15:03 53.72990 8.55952 22102 ft 384 kts 347°
2026-05-01 15:03 53.75601 8.54964 21583 ft 382 kts 347°
2026-05-01 15:03 53.78186 8.53989 21119 ft 379 kts 347°
2026-05-01 15:04 53.80750 8.53026 20643 ft 376 kts 347°
2026-05-01 15:04 53.83301 8.52069 20156 ft 375 kts 347°
2026-05-01 15:04 53.85836 8.51115 19690 ft 373 kts 347°
2026-05-01 15:04 53.88367 8.50164 19251 ft 370 kts 347°
2026-05-01 15:05 53.90873 8.49225 18815 ft 368 kts 347°
2026-05-01 15:05 53.93365 8.48287 18326 ft 366 kts 347°
2026-05-01 15:05 53.95847 8.47349 17844 ft 364 kts 347°
2026-05-01 15:05 53.98312 8.46412 17396 ft 362 kts 347°
2026-05-01 15:06 54.00763 8.45478 16909 ft 360 kts 347°
2026-05-01 15:06 54.03196 8.44549 16475 ft 358 kts 346°
2026-05-01 15:06 54.05625 8.43621 16028 ft 357 kts 347°
2026-05-01 15:06 54.08050 8.42696 15599 ft 355 kts 347°
2026-05-01 15:07 54.10452 8.41777 15178 ft 354 kts 347°
2026-05-01 15:07 54.12850 8.40859 14758 ft 352 kts 347°
2026-05-01 15:07 54.15237 8.39949 14350 ft 351 kts 347°
2026-05-01 15:07 54.17615 8.39042 13925 ft 349 kts 347°
2026-05-01 15:08 54.19980 8.38136 13468 ft 348 kts 347°
2026-05-01 15:08 54.22335 8.37232 13016 ft 346 kts 346°
2026-05-01 15:08 54.24678 8.36334 12571 ft 344 kts 346°
2026-05-01 15:08 54.27010 8.35441 12143 ft 343 kts 346°
2026-05-01 15:09 54.29331 8.34552 11690 ft 341 kts 346°
2026-05-01 15:09 54.31641 8.33664 11269 ft 339 kts 346°
2026-05-01 15:09 54.33968 8.32766 10831 ft 338 kts 346°
2026-05-01 15:09 54.36205 8.31898 10622 ft 329 kts 346°
2026-05-01 15:10 54.38430 8.31034 10481 ft 318 kts 346°
2026-05-01 15:10 54.42696 8.29379 9806 ft 311 kts 346°
2026-05-01 15:10 54.44794 8.28569 9428 ft 309 kts 346°
2026-05-01 15:11 54.46887 8.27756 9041 ft 307 kts 346°
2026-05-01 15:11 54.51024 8.26152 8260 ft 303 kts 346°
2026-05-01 15:11 54.53076 8.25351 7874 ft 300 kts 346°
2026-05-01 15:12 54.55107 8.24559 7489 ft 298 kts 346°
2026-05-01 15:12 54.59117 8.22991 6727 ft 294 kts 346°
2026-05-01 15:12 54.61102 8.22214 6309 ft 292 kts 346°
2026-05-01 15:13 54.67002 8.19895 5019 ft 288 kts 346°
2026-05-01 15:14 54.70882 8.18373 4127 ft 285 kts 346°
2026-05-01 15:14 54.72814 8.17613 3667 ft 284 kts 346°
2026-05-01 15:14 54.76649 8.16099 2981 ft 280 kts 346°
2026-05-01 15:15 54.80475 8.14595 2995 ft 281 kts 346°
2026-05-01 15:15 54.84306 8.13089 2978 ft 282 kts 345°
2026-05-01 15:16 54.88135 8.11572 3010 ft 283 kts 345°
2026-05-01 15:16 54.91951 8.10048 3001 ft 272 kts 345°
2026-05-01 15:17 54.95388 8.08688 2997 ft 236 kts 345°
2026-05-01 15:18 54.99727 8.10801 3009 ft 218 kts 54°
2026-05-01 15:18 55.00586 8.12847 3010 ft 201 kts 60°
2026-05-01 15:19 55.02081 8.18940 2557 ft 174 kts 107°
2026-05-01 15:19 55.00860 8.22202 2157 ft 159 kts 147°
2026-05-01 15:19 54.99942 8.23338 1950 ft 160 kts 148°
2026-05-01 15:20 54.98172 8.25533 1546 ft 148 kts 147°
2026-05-01 15:20 54.97373 8.26522 1362 ft 133 kts 148°
2026-05-01 15:20 54.96649 8.27415 1190 ft 124 kts 147°
2026-05-01 15:21 54.95955 8.28288 1035 ft 122 kts 147°
2026-05-01 15:21 54.95266 8.29144 864 ft 122 kts 148°
2026-05-01 15:21 54.94572 8.30003 706 ft 123 kts 147°
2026-05-01 15:21 54.93876 8.30872 539 ft 123 kts 147°
2026-05-01 15:22 54.92478 8.32612 213 ft 123 kts 146°
2026-05-01 15:22 54.91785 8.33472 43 ft 121 kts 146°
2026-05-01 15:22 54.91205 8.34194 37 ft 79 kts 144°
2026-05-01 15:23 54.90886 8.34590 36 ft 42 kts 144°
2026-05-01 15:23 54.90679 8.34846 35 ft 31 kts 144°
2026-05-01 15:23 54.90550 8.35005 36 ft 18 kts 144°
2026-05-01 15:23 54.90452 8.35125 37 ft 17 kts 144°
2026-05-01 15:24 54.90381 8.35166 37 ft 11 kts 203°
2026-05-01 15:24 54.90333 8.35058 35 ft 10 kts 237°
2026-05-01 15:24 54.90317 8.34930 36 ft 11 kts 260°
2026-05-01 15:24 54.90302 8.34787 35 ft 13 kts 259°
2026-05-01 15:25 54.90285 8.34623 35 ft 15 kts 259°
2026-05-01 15:25 54.90266 8.34440 35 ft 16 kts 260°
2026-05-01 15:25 54.90245 8.34236 34 ft 18 kts 261°
2026-05-01 15:25 54.90238 8.34008 33 ft 20 kts 275°
2026-05-01 15:26 54.90257 8.33765 33 ft 20 kts 279°
2026-05-01 15:26 54.90302 8.33547 31 ft 20 kts 299°
2026-05-01 15:26 54.90394 8.33365 34 ft 20 kts 322°
2026-05-01 15:26 54.90523 8.33259 34 ft 21 kts 346°
2026-05-01 15:27 54.90668 8.33232 35 ft 21 kts 356°
2026-05-01 15:27 54.90800 8.33213 35 ft 14 kts 351°
2026-05-01 15:27 54.90895 8.33159 34 ft 15 kts 333°
2026-05-01 15:28 54.91041 8.33168 34 ft 12 kts 21°
2026-05-01 15:28 54.91126 8.33179 35 ft 12 kts 360°
2026-05-01 15:28 54.91217 8.33179 33 ft 15 kts
2026-05-01 15:29 54.91341 8.33249 29 ft 8 kts 18°
2026-05-01 15:29 54.91384 8.33211 29 ft 7 kts 290°
2026-05-01 15:29 54.91385 8.33122 29 ft 1 kts 270°
2026-05-01 15:30 54.91385 8.33118 29 ft 0 kts 270°